Weather History for KSAC - June, 2014

Change the Weather History Date:

Sunday, June 8, 2014

  Actual Average Record
Temperature  
Mean Temperature 83 °F -  
Max Temperature 104 °F 85 °F 108 °F (2013)
Min Temperature 62 °F 55 °F 44 °F (1950)
Degree Days  
Heating Degree Days 0    
Cooling Degree Days 18    
Growing Degree Days 32 (Base 50)    
Moisture  
Dew Point 50 °F    
Average Humidity 43    
Maximum Humidity 73    
Minimum Humidity 13    
Precipitation  
Precipitation 0.00 in 0.01 in 0.48 in (2005)
Month to date precipitation 0.00 0.10  
Year to date precipitation 7.89 11.79  
Since 1 July precipitation 9.79  
Sea Level Pressure  
Sea Level Pressure 29.73 in    
Wind  
Wind Speed 4 mph (NNW)    
Max Wind Speed 17 mph    
Max Gust Speed 24 mph    
Visibility 10 miles    
Events      
T = Trace of Precipitation, MM = Missing Value Source: NWS Daily Summary

Daily Weather History Graph

Daily Weather History Graph

Search for Another Location

Airport or City:

Trip Planner

Search our weather history database for the weather conditions in past years. The results will help you decide how hot, cold, wet, or windy it might be!

Date:

Astronomy

Jun. 08, 2014 Rise Set
Actual Time 5:41 AM PDT 8:28 PM PDT
Civil Twilight 5:10 AM PDT 9:00 PM PDT
Nautical Twilight 4:30 AM PDT 9:39 PM PDT
Astronomical Twilight 3:45 AM PDT 10:24 PM PDT
Moon 3:55 PM PDT (6/8) 2:34 AM PDT (6/8)
Length of Visible Light 15h 50m
Length of Day
14h 46m
Waxing Gibbous, 78% of the Moon is Illuminated
Jun 8
Waxing Gibbous
Jun 12
Full
Jun 19
Last Quarter
Jun 27
New
Jul 5
First Quarter

Hourly Weather History & Observations

Time (PDT) Temp. Heat Index Dew Point Humidity Pressure Visibility Wind Dir Wind Speed Gust Speed Precip Events Conditions
12:53 AM 66.9 °F - 53.1 °F 61% 29.75 in 10.0 mi Calm Calm - N/A   Clear
1:53 AM 66.0 °F - 53.1 °F 63% 29.75 in 10.0 mi South 3.5 mph - N/A   Clear
2:53 AM 64.0 °F - 53.1 °F 67% 29.74 in 10.0 mi Calm Calm - N/A   Clear
3:53 AM 63.0 °F - 53.1 °F 70% 29.75 in 10.0 mi Calm Calm - N/A   Clear
4:53 AM 64.0 °F - 54.0 °F 70% 29.76 in 10.0 mi North 3.5 mph - N/A   Clear
5:53 AM 64.0 °F - 54.0 °F 70% 29.76 in 10.0 mi Calm Calm - N/A   Clear
6:53 AM 66.9 °F - 57.0 °F 70% 29.78 in 10.0 mi Calm Calm - N/A   Clear
7:53 AM 73.9 °F - 57.0 °F 55% 29.78 in 10.0 mi NW 4.6 mph - N/A   Clear
8:53 AM 80.1 °F 80.1 °F 55.0 °F 42% 29.79 in 10.0 mi NNW 9.2 mph - N/A   Clear
9:53 AM 86.0 °F 84.0 °F 53.1 °F 32% 29.78 in 10.0 mi NNW 10.4 mph - N/A   Clear
10:53 AM 91.0 °F - 51.1 °F 25% 29.78 in 10.0 mi NNW 11.5 mph - N/A   Clear
11:53 AM 95.0 °F - 50.0 °F 22% 29.78 in 10.0 mi NNW 15.0 mph 20.7 mph N/A   Clear
12:53 PM 98.1 °F - 48.0 °F 18% 29.76 in 10.0 mi NNW 11.5 mph - N/A   Clear
1:53 PM 100.0 °F - 45.0 °F 15% 29.74 in 10.0 mi NNW 13.8 mph - N/A   Clear
2:53 PM 102.0 °F - 44.1 °F 14% 29.72 in 10.0 mi NNW 13.8 mph 19.6 mph N/A   Clear
3:53 PM 102.9 °F - 42.1 °F 13% 29.70 in 10.0 mi NNW 11.5 mph - N/A   Clear
4:53 PM 102.9 °F - 43.0 °F 13% 29.68 in 10.0 mi NW 12.7 mph - N/A   Clear
5:53 PM 102.9 °F - 43.0 °F 13% 29.67 in 10.0 mi NNW 10.4 mph - N/A   Clear
6:53 PM 102.0 °F - 41.0 °F 12% 29.66 in 10.0 mi North 9.2 mph - N/A   Clear
7:53 PM 95.0 °F - 43.0 °F 17% 29.67 in 10.0 mi Calm Calm - N/A   Clear
8:53 PM 82.9 °F - 51.1 °F 33% 29.68 in 10.0 mi Calm Calm - N/A   Clear
9:53 PM 82.0 °F 81.3 °F 54.0 °F 38% 29.69 in 10.0 mi SW 3.5 mph - N/A   Clear
10:53 PM 75.9 °F - 54.0 °F 46% 29.69 in 10.0 mi Calm Calm - N/A   Clear
11:53 PM 73.0 °F - 53.1 °F 49% 29.69 in 10.0 mi Calm Calm - N/A   Clear